CW1334 Weather Reports


Display with metric or nautical units.
time (UTC)temp
F
wind
direction
speed
MPH
gust
MPH
rain 1hr
in
rain 24hr
in
rain mn
in
humidity
%
barometer
mb
20200329060537 37 359 9.0 13.0 0.00 0.00 0.00 61 1009.2
20200329055637 38 359 8.0 13.0 0.00 0.00 0.00 59 1009.2
20200329052937 36 359 8.0 14.0 0.00 0.00 0.00 63 1009.3
20200329052037 37 1 8.0 12.0 0.00 0.00 0.00 62 1009.3
20200329050237 39 359 9.0 14.0 0.00 0.00 0.00 58 1009.3
20200329045337 39 359 9.0 13.0 0.00 0.00 0.00 56 1009.2
20200329044437 40 1 8.0 12.0 0.00 0.00 0.00 54 1009.3
20200329041736 39 358 8.0 14.0 0.00 0.00 0.00 60 1009.4
20200329040837 37 1 4.0 10.0 0.00 0.00 0.00 63 1009.6
20200329035937 36 1 1.0 5.0 0.00 0.00 0.00 64 1009.7
20200329035036 36 0 0.0 0.0 0.00 0.00 0.00 64 1009.8
20200329033237 37 359 2.0 5.0 0.00 0.00 0.00 61 1009.8
20200329032337 38 359 4.0 8.0 0.00 0.00 0.00 59 1009.8
20200329030536 40 1 5.0 10.0 0.00 0.00 0.00 56 1009.8
20200329025636 41 359 7.0 10.0 0.00 0.00 0.00 55 1009.8
20200329024737 42 1 8.0 12.0 0.00 0.00 0.00 55 1009.8
20200329023837 42 1 9.0 15.0 0.00 0.00 0.00 53 1009.7
20200329022937 43 1 8.0 14.0 0.00 0.00 0.00 51 1009.7
20200329015336 45 1 12.0 19.0 0.00 0.00 0.00 48 1009.3
20200329014436 46 1 12.0 20.0 0.00 0.00 0.00 46 1009.4
20200329013536 47 1 11.0 17.0 0.00 0.00 0.00 45 1009.3
20200329012636 48 1 12.0 20.0 0.00 0.00 0.00 43 1009.3
20200329005036 51 1 14.0 24.0 0.00 0.00 0.00 38 1009.2
20200329004136 50 1 10.0 15.0 0.00 0.00 0.00 40 1009.2
20200329003237 50 1 7.0 12.0 0.00 0.00 0.00 41 1009.2
20200329002336 50 1 8.0 14.0 0.00 0.00 0.00 41 1009.2
20200328235636 52 1 9.0 15.0 0.00 0.00 0.00 36 1009.1
20200328234736 51 1 8.0 14.0 0.00 0.00 0.00 38 1009.0
20200328233836 51 1 8.0 14.0 0.00 0.00 0.00 38 1008.9
20200328232036 52 1 10.0 20.0 0.00 0.00 0.00 35 1008.8
20200328231136 52 1 11.0 18.0 0.00 0.00 0.00 34 1008.8
20200328230236 53 1 11.0 17.0 0.00 0.00 0.00 32 1008.7
20200328225336 52 1 11.0 19.0 0.00 0.00 0.00 34 1008.8
20200328224436 51 1 10.0 19.0 0.00 0.00 0.00 35 1008.7
20200328211436 52 1 10.0 17.0 0.00 0.00 0.00 31 1008.7
20200328210536 52 1 11.0 16.0 0.00 0.00 0.00 30 1008.7
20200328202936 53 1 11.0 19.0 0.00 0.00 0.00 30 1008.6
20200328202036 54 1 10.0 18.0 0.00 0.00 0.00 29 1008.7
20200328201136 53 1 11.0 18.0 0.00 0.00 0.00 29 1008.7
20200328194436 50 1 10.0 16.0 0.00 0.00 0.00 31 1009.1
20200328191736 50 1 9.0 16.0 0.00 0.00 0.00 32 1009.1
20200328185935 51 1 8.0 17.0 0.00 0.00 0.00 32 1009.2
20200328183236 50 1 11.0 18.0 0.00 0.00 0.00 35 1009.2
20200328182335 50 1 11.0 19.0 0.00 0.00 0.00 38 1009.2
20200328175635 48 1 14.0 22.0 0.00 0.00 0.00 41 1009.1
20200328173835 48 1 12.0 20.0 0.00 0.00 0.00 43 1009.2
20200328172935 48 1 12.0 20.0 0.00 0.00 0.00 41 1009.1
20200328172035 47 1 10.0 17.0 0.00 0.00 0.00 43 1009.1
20200328171135 46 1 10.0 17.0 0.00 0.00 0.00 47 1009.2
20200328170235 45 1 9.0 14.0 0.00 0.00 0.00 52 1009.2
20200328165335 44 1 9.0 14.0 0.00 0.00 0.00 53 1009.2
20200328164435 44 1 10.0 16.0 0.00 0.00 0.00 53 1009.1
20200328163535 44 1 11.0 18.0 0.00 0.00 0.00 54 1009.0
20200328162635 43 1 12.0 20.0 0.00 0.00 0.00 53 1009.0
20200328161735 43 1 11.0 19.0 0.00 0.00 0.00 54 1008.8
20200328155035 41 1 9.0 16.0 0.00 0.00 0.00 57 1008.8
20200328152335 37 1 3.0 5.0 0.00 0.00 0.00 69 1008.8
20200328151435 36 1 2.0 4.0 0.00 0.00 0.00 71 1008.8
20200328150535 35 1 3.0 4.0 0.00 0.00 0.00 70 1008.7
20200328142035 30 1 2.0 4.0 0.00 0.00 0.00 77 1008.7
20200328141135 30 1 3.0 4.0 0.00 0.00 0.00 77 1008.6
20200328135335 28 1 2.0 3.0 0.00 0.00 0.00 79 1008.6
20200328134435 27 1 2.0 4.0 0.00 0.00 0.00 81 1008.5
20200328132635 25 0 0.0 0.0 0.00 0.00 0.00 82 1008.3
20200328131735 25 1 1.0 3.0 0.00 0.00 0.00 81 1008.2
20200328130835 25 1 0.0 2.0 0.00 0.00 0.00 81 1008.1
20200328124135 26 1 2.0 4.0 0.00 0.00 0.00 79 1008.0
20200328123235 26 359 3.0 5.0 0.00 0.00 0.00 78 1008.0
20200328120535 28 357 4.0 8.0 0.00 0.00 0.00 76 1007.7
20200328115635 28 359 4.0 8.0 0.00 0.00 0.00 76 1007.7
20200328114735 28 358 4.0 8.0 0.00 0.00 0.00 76 1007.6
20200328112935 27 1 4.0 8.0 0.00 0.00 0.00 77 1007.3
20200328112035 28 1 2.0 5.0 0.00 0.00 0.00 74 1007.2
20200328110235 29 359 6.0 10.0 0.00 0.00 0.00 74 1006.9
20200328105334 28 359 6.0 10.0 0.00 0.00 0.00 76 1007.0
20200328104435 28 358 5.0 10.0 0.00 0.00 0.00 75 1006.8
20200328103535 29 357 4.0 8.0 0.00 0.00 0.00 74 1006.8
20200328095935 27 350 4.0 6.0 0.00 0.00 0.00 79 1006.7
20200328094135 27 359 2.0 4.0 0.00 0.00 0.00 78 1006.6
20200328093335 28 355 2.0 5.0 0.00 0.00 0.00 74 1006.6
20200328091435 29 356 4.0 6.0 0.00 0.00 0.00 76 1006.6
20200328090534 28 329 3.0 5.0 0.00 0.00 0.00 77 1006.6
20200328085634 28 337 4.0 6.0 0.00 0.00 0.00 78 1006.4
20200328082035 28 1 1.0 4.0 0.00 0.00 0.00 79 1006.6
20200328080234 28 1 3.0 5.0 0.00 0.00 0.00 79 1006.6
20200328075334 28 1 3.0 5.0 0.00 0.00 0.00 79 1006.5
20200328070834 30 319 0.0 3.0 0.00 0.00 0.00 74 1006.2
20200328065034 30 352 1.0 3.0 0.00 0.00 0.00 74 1006.2